Theta_e
367 368 368 367 368 365 363 363 361 362 361 357 356 352 350 350 351 348 346 348 345 345 343 344 344 345 340 339 341 340 338 332 328 332 335 337 339 339 338 340 342 339 336
366 367 367 368 368 366 362 365 365 361 364 360 355 352 351 348 349 346 344 344 343 343 343 344 343 342 341 342 340 339 338 337 333 329 332 334 336 337 340 339 339 336 336
364 364 366 366 365 364 365 362 364 363 359 354 355 352 350 348 346 346 346 345 342 341 342 343 341 342 341 340 341 338 339 339 336 332 330 334 333 337 333 336 335 336 335
362 362 363 365 365 364 364 364 363 364 359 356 354 352 351 349 347 345 346 345 344 343 346 344 343 342 342 341 342 340 339 337 334 332 329 329 330 332 333 329 328 331 330
358 360 362 366 366 366 364 364 363 365 361 357 353 352 352 348 346 343 344 345 344 342 344 345 344 344 342 340 340 338 337 335 332 330 328 328 326 327 325 327 325 327 328
355 358 362 364 367 365 364 364 364 364 362 358 353 352 350 346 334 333 342 344 343 342 340 343 342 343 339 335 333 333 334 333 330 328 327 326 327 329 328 327 324 322 319
359 359 361 363 365 365 365 363 363 362 360 357 352 351 349 347 328 329 334 344 342 341 343 342 342 339 340 342 334 331 331 330 329 331 327 327 328 329 330 326 324 322 319
359 362 364 365 365 365 364 363 361 363 360 354 352 350 347 345 325 325 331 340 339 340 342 343 343 342 343 341 339 339 337 336 331 330 329 330 332 332 330 325 322 320 320
359 366 364 367 367 365 364 362 362 360 357 352 348 346 344 341 323 324 328 334 336 339 342 343 344 341 336 329 335 333 334 334 333 325 329 326 323 321 322 322 318 315 314
361 362 368 370 367 366 365 363 363 358 353 353 349 347 336 339 321 320 326 337 335 335 341 342 330 337 326 322 330 333 330 331 333 331 329 326 322 323 322 322 320 316 315
365 366 369 368 368 368 364 361 358 354 351 349 346 342 340 337 336 318 318 337 336 336 339 339 340 321 316 316 318 329 326 320 326 327 324 322 323 323 325 328 325 322 318
366 366 367 368 364 362 359 354 354 350 346 345 341 339 340 342 328 316 316 320 330 339 340 340 338 314 312 314 314 315 312 314 321 320 319 319 320 320 320 321 321 320 319
363 363 364 364 362 359 354 349 346 346 340 338 337 336 337 347 345 315 313 315 317 333 334 320 312 311 312 311 312 313 313 318 318 318 318 317 317 319 321 319 321 322 322
363 361 358 351 349 348 344 342 341 340 339 338 338 340 344 343 337 331 328 324 319 324 318 317 317 317 316 320 318 314 317 320 322 320 317 317 320 316 314 314 311 310 307
353 351 350 347 345 333 320 325 340 324 326 341 345 343 339 338 337 328 329 333 330 324 321 323 321 321 320 320 321 322 321 321 320 320 318 317 314 313 311 312 310 307 306
345 344 342 343 339 332 326 319 301 302 300 300 305 325 321 312 304 302 300 301 305 311 323 331 327 325 324 321 322 321 320 320 318 320 318 315 312 310 309 309 309 309 307
347 344 341 340 340 339 336 331 320 310 300 298 299 305 306 302 299 298 298 300 305 310 327 325 322 324 323 321 320 318 315 318 319 318 316 314 311 310 308 308 307 308 307
347 328 342 340 338 339 337 337 332 325 322 317 302 305 297 297 297 297 298 305 316 313 321 319 320 322 321 319 317 316 318 317 315 313 310 309 309 309 307 306 307 306 305
341 341 341 338 337 334 336 335 332 330 329 319 313 307 301 297 297 298 299 320 321 321 319 320 322 321 320 320 319 319 316 314 310 308 308 309 310 307 306 306 306 303 304
338 327 335 337 331 334 333 330 331 330 328 323 322 318 314 311 315 316 317 319 321 322 320 319 319 319 319 318 317 316 314 312 310 311 310 309 309 307 304 305 304 304 305
336 334 322 331 331 331 331 330 330 330 328 326 325 321 310 319 319 320 319 319 322 322 322 320 320 319 319 318 316 312 309 308 309 308 307 306 308 305 307 306 305 305 305
331 330 331 330 330 331 329 331 332 328 328 325 327 316 303 319 322 322 321 321 319 323 322 323 320 319 317 314 311 310 308 308 308 307 306 306 306 306 306 304 305 305 305
328 325 324 328 326 321 322 328 323 322 325 325 324 317 316 320 324 322 322 321 319 319 319 319 320 317 316 313 311 309 308 307 307 307 306 306 305 306 305 305 304 303 304
327 325 325 327 330 325 326 324 326 318 323 323 322 322 321 322 320 322 318 322 318 317 317 315 315 316 314 312 310 308 308 307 305 304 304 303 303 305 305 305 304 303 304
326 325 322 322 324 325 323 323 324 323 323 324 320 321 323 324 323 320 319 318 318 318 317 317 315 316 314 311 310 299 289 289 298 290 301 303 303 306 306 302 304 303 305
323 323 323 323 323 325 323 322 323 321 320 321 323 320 323 321 321 322 318 319 320 318 317 316 316 316 312 309 307 290 284 288 294 288 295 299 301 305 304 303 304 302 303
Wind_Speed
20 18 17 16 17 16 13 12 13 10 8 13 13 13 12 11 9 7 7 6 8 7 7 5 3 2 2 4 3 2 2 2 3 3 2 2 2 4 5 4 5 6 6
19 18 19 17 17 17 16 14 13 13 9 10 13 13 13 12 10 10 10 7 7 9 9 7 6 4 6 4 3 5 3 4 2 5 3 4 5 5 3 4 4 7 5
19 19 19 19 18 19 18 17 15 14 13 13 14 14 14 14 13 12 11 9 9 9 8 8 7 6 5 4 4 4 3 3 3 3 4 4 5 3 4 4 4 4 6
20 20 20 20 20 19 17 17 16 15 14 14 13 14 14 14 13 12 11 9 8 7 6 6 7 8 7 6 4 4 5 5 4 3 6 6 5 6 2 2 4 3 4
20 21 21 19 18 16 16 16 16 15 15 14 15 14 13 12 11 12 12 12 10 9 8 7 7 7 8 7 5 7 7 5 5 6 5 5 4 2 3 3 4 5 5
20 21 19 18 17 18 16 15 15 15 15 14 15 14 16 11 12 16 13 11 11 10 8 7 7 7 7 9 11 8 7 5 7 5 5 6 4 3 3 3 4 6 9
17 18 18 18 18 18 16 15 15 15 14 14 14 12 13 12 12 13 15 8 8 9 8 8 8 6 8 5 8 8 8 9 11 6 7 6 7 5 3 4 5 5 8
16 17 17 17 17 16 16 15 14 12 13 11 10 10 10 9 12 11 8 7 5 6 9 9 7 8 5 5 5 5 7 9 10 8 9 10 7 6 3 4 6 7 7
17 14 16 16 16 16 15 15 12 10 10 9 9 11 11 9 12 12 10 8 9 11 8 7 6 8 7 7 6 9 9 7 8 11 13 7 6 8 9 3 7 6 8
16 16 13 13 15 15 13 11 9 8 8 8 9 9 9 10 14 15 12 7 10 9 9 10 9 8 7 6 4 7 5 5 4 5 1 3 8 10 15 10 9 8 8
12 13 12 13 13 12 11 9 10 8 7 7 7 6 7 9 8 16 17 10 8 8 3 5 6 8 9 6 4 3 3 4 6 4 5 6 7 9 9 7 6 6 6
12 13 12 12 10 9 10 7 9 7 6 6 5 4 4 7 8 12 15 15 4 3 3 2 3 8 10 7 6 7 3 3 4 5 7 7 5 3 3 3 3 5 5
13 13 12 11 8 10 9 10 8 7 6 5 5 5 6 5 4 8 8 5 3 2 3 5 12 10 6 5 7 8 5 4 5 6 6 3 3 4 5 5 5 6 6
13 14 13 12 11 11 9 6 6 6 5 5 6 5 3 3 6 6 5 5 5 5 6 6 8 8 9 3 5 7 4 5 4 3 3 4 3 4 4 3 3 3 5
11 12 12 10 10 10 8 3 6 5 1 4 4 5 6 7 8 10 7 5 5 6 7 5 5 5 6 7 6 7 7 6 5 5 1 3 3 4 3 4 3 5 6
12 9 8 8 9 9 7 7 17 10 7 11 5 3 4 8 13 13 12 10 8 7 5 4 5 6 6 6 5 4 5 7 5 1 2 2 4 3 4 4 4 4 4
12 13 9 8 7 9 10 8 8 7 13 14 11 9 10 13 14 14 11 10 6 2 1 2 4 3 3 4 5 5 4 3 4 1 2 3 3 4 4 4 5 4 4
13 12 10 10 10 7 8 9 9 9 8 6 10 8 9 10 9 9 9 8 3 1 3 4 4 3 2 3 1 3 4 4 4 4 4 4 5 3 4 5 5 4 5
8 4 3 4 6 10 6 6 8 10 9 9 7 5 7 8 8 8 3 2 4 4 6 3 2 3 4 4 4 4 4 2 2 2 3 5 3 4 4 5 5 8 8
4 8 6 5 4 5 5 5 3 8 11 9 8 8 8 6 5 4 3 4 4 3 4 4 3 4 4 3 3 3 2 2 4 4 3 3 3 4 5 5 6 7 6
2 2 6 8 5 6 5 5 5 9 9 9 8 11 14 9 7 7 6 6 4 2 3 3 4 3 2 2 1 1 3 4 3 1 3 4 4 4 5 5 7 7 6
6 6 4 5 6 5 5 4 2 7 9 7 7 10 18 6 7 6 6 4 5 4 3 4 2 3 2 3 4 3 3 3 2 4 4 4 4 5 4 6 6 6 5
3 6 6 5 6 7 3 3 6 7 7 7 8 9 9 7 4 6 5 3 4 5 5 4 2 1 1 3 1 2 2 4 4 4 3 4 5 4 4 6 6 5 6
10 9 6 7 0 2 4 5 5 7 8 7 9 8 9 7 4 5 5 5 5 5 4 5 3 1 4 3 1 2 1 5 5 5 6 5 7 5 5 6 4 7 7
9 7 3 1 5 4 4 2 4 6 3 6 4 4 6 5 3 3 5 6 5 6 6 5 4 5 7 5 1 9 7 10 8 2 3 5 8 10 4 5 6 7 6
5 7 6 6 4 2 2 4 4 5 5 5 6 5 6 5 6 6 5 6 6 7 7 5 7 8 10 8 7 14 7 8 5 4 2 5 7 6 4 6 8 6 5
Wind_Direction
189 190 193 198 197 202 205 204 190 200 191 169 175 177 183 190 188 177 222 213 183 181 170 187 225 195 260 278 341 341 274 215 236 280 220 304 268 232 234 250 231 229 250
188 190 195 195 198 198 209 202 199 192 179 172 179 185 187 188 181 185 210 212 195 188 192 167 200 199 208 231 266 282 310 306 268 273 276 290 276 262 231 249 269 274 241
190 192 194 198 199 203 201 207 198 195 191 188 184 191 190 190 184 192 205 219 204 202 203 175 178 202 210 226 210 247 270 274 314 270 272 252 261 238 258 260 268 256 271
189 195 200 198 202 203 200 201 205 197 195 193 195 197 195 191 192 193 204 211 221 218 205 184 177 206 199 204 217 238 253 264 266 274 269 265 258 246 232 283 282 265 272
191 196 200 201 202 199 201 201 203 195 199 196 197 199 197 193 189 191 204 211 209 219 209 202 183 212 215 195 195 227 227 237 237 241 254 263 282 8 313 302 297 293 287
190 196 196 195 196 199 199 200 201 200 199 194 201 197 196 199 197 190 198 202 208 213 214 215 224 190 205 209 210 232 239 248 254 257 268 274 287 286 315 290 296 295 290
187 193 193 191 193 193 192 196 196 203 190 200 200 200 203 204 184 198 193 205 210 213 204 218 228 226 219 211 206 222 241 236 236 233 240 251 265 265 274 276 276 293 281
191 188 189 189 187 184 190 194 198 194 197 197 195 198 201 195 164 169 191 221 257 247 218 213 218 244 241 208 249 249 236 228 225 232 228 239 246 259 234 240 259 265 268
185 186 185 179 175 179 188 192 190 197 192 187 191 195 200 190 172 177 178 209 228 233 234 227 212 230 245 227 229 250 251 253 274 238 236 232 215 230 235 258 264 265 276
189 184 170 163 170 179 181 178 176 167 186 197 192 186 191 206 184 182 182 212 221 215 209 223 213 220 247 184 209 258 258 264 294 341 295 255 243 248 246 237 249 252 263
175 172 160 164 168 166 165 167 165 168 184 191 173 163 189 210 200 196 190 210 229 214 228 200 196 205 193 172 214 269 337 345 324 301 286 273 262 254 245 243 221 234 265
157 161 155 153 158 153 151 138 148 151 143 149 142 169 194 212 206 193 195 209 260 251 269 161 184 171 150 178 182 144 148 314 280 279 271 273 271 335 2 1 268 260 260
147 146 143 136 126 126 141 131 127 132 154 155 172 189 218 180 152 152 173 181 213 303 57 112 114 113 148 178 174 184 192 232 252 262 274 310 330 316 321 297 283 271 262
134 122 112 105 104 102 109 125 126 143 156 181 194 197 191 175 147 152 154 166 151 148 134 131 158 174 175 190 168 205 219 244 248 272 291 278 280 333 305 291 309 316 310
102 104 106 112 108 89 64 37 133 63 146 209 184 175 193 169 169 173 158 168 179 184 181 158 179 194 192 201 212 198 207 227 241 246 311 303 328 292 305 315 315 304 288
116 108 110 119 126 121 119 93 44 50 58 50 27 111 49 90 118 114 111 111 127 150 203 189 218 239 213 187 199 198 200 215 244 358 27 330 285 306 297 297 282 280 296
137 125 137 146 146 153 149 134 124 58 61 54 53 82 97 136 124 129 128 107 77 82 265 289 267 257 164 178 180 196 215 148 160 191 250 267 301 283 295 300 290 297 298
134 145 153 164 147 175 167 157 152 150 143 111 44 81 86 113 116 126 144 149 145 162 253 257 266 166 147 127 82 45 40 36 28 20 8 333 288 291 308 295 296 309 298
123 131 130 136 140 129 172 180 162 151 134 128 132 106 91 79 87 87 71 278 270 230 199 228 44 29 46 38 58 53 62 25 38 335 280 269 304 327 311 301 314 306 297
85 127 149 116 103 124 147 193 189 131 135 149 159 154 150 154 170 169 193 220 258 299 60 43 28 54 50 42 39 37 342 267 258 214 249 346 324 333 310 316 317 304 302
131 79 57 124 163 157 171 222 161 150 161 171 162 154 169 180 180 185 181 196 208 257 129 107 50 48 57 156 169 290 280 266 267 19 22 1 344 314 300 330 304 311 321
160 178 198 205 145 141 161 190 149 178 178 164 152 153 159 208 213 181 183 189 172 143 87 102 73 348 21 40 28 4 328 303 326 58 33 343 326 310 352 307 310 318 330
108 113 51 39 89 93 278 159 77 99 115 133 155 148 169 208 232 158 170 155 121 122 132 132 124 110 56 110 51 345 326 327 58 59 7 341 309 325 316 309 312 332 321
99 84 88 112 94 37 113 105 97 102 145 149 153 169 182 209 213 173 151 132 127 131 129 137 161 163 95 83 40 240 22 54 54 48 27 318 303 323 312 308 332 321 307
102 98 61 118 181 200 108 250 205 162 143 149 149 166 207 184 121 104 143 159 161 161 169 178 170 177 157 152 46 92 86 65 68 35 309 317 301 299 330 330 330 313 323
149 141 177 186 210 235 232 205 139 152 177 168 172 163 177 176 196 187 160 170 181 185 183 183 189 175 148 160 138 131 127 113 100 71 327 287 284 301 23 308 319 315 345